Location: ???????
(55.8860°N, 38.0932°E)
Time: 11:51:23
(UTC+00:00)

ALOS - Pass Details

Date: 14 April 2024
Orbit: 674 x 676 km, 98.0° (Epoch: 26 May)

Event Time Altitude Azimuth Distance (km) Brightness Sun altitude
Rises 00:04:20 0° 18° (NNE) 3,048 6.9 -17.0°
Reaches altitude 10° 00:06:39 10° 23° (NNE) 2,129 6.0 -16.8°
Maximum altitude 00:11:11 51° 100° (E) 854 2.9 -16.4°
Enters shadow 00:14:58 14° 174° (S) 1,832 4.1 -16.0°
